When you browse on this site, cookies collect data to enhance your experience and personalize the content and advertising you see.
Visit our Privacy Policy to learn more. By continuing to use the site, you agree to this use of cookies and data.
  • En España
  • Lista de países
  • Para 7 días
  • Temperatura del agua
  • El tiempo en el mapa
  • Informadores
  • user-avatar
    Iniciar sesión

    Tiempo cada hora Gaborone

    Hoy, 29 Febrero, Sábado

    Tiempo Temperatura Precipitaciones Viento Presión Humedad
    00:00 +26°C° 0 mm 6 mps 678 mmHg 54%
    01:00 +24°C° 0 mm 6 mps 678 mmHg 59%
    02:00 +23°C° 0 mm 5 mps 678 mmHg 64%
    03:00 +22°C° 0 mm 5 mps 678 mmHg 65%
    04:00 +21°C° 0 mm 5 mps 678 mmHg 66%
    05:00 +21°C° 0 mm 5 mps 678 mmHg 68%
    06:00 +21°C° 0 mm 5 mps 679 mmHg 65%
    07:00 +21°C° 0 mm 6 mps 680 mmHg 63%
    08:00 +22°C° 0 mm 6 mps 680 mmHg 61%
    09:00 +23°C° 0 mm 6 mps 680 mmHg 55%
    10:00 +26°C° 0 mm 6 mps 681 mmHg 49%
    11:00 +28°C° 0 mm 6 mps 681 mmHg 43%
    12:00 +29°C° 0 mm 6 mps 680 mmHg 40%
    13:00 +30°C° 0 mm 5 mps 680 mmHg 37%
    14:00 +33°C° 0 mm 5 mps 680 mmHg 34%
    15:00 +32°C° 0 mm 5 mps 679 mmHg 35%
    16:00 +32°C° 0 mm 4 mps 678 mmHg 36%
    17:00 +30°C° 0 mm 4 mps 678 mmHg 37%
    18:00 +29°C° 0 mm 4 mps 678 mmHg 40%
    19:00 +28°C° 0 mm 3 mps 678 mmHg 43%
    20:00 +27°C° 0 mm 3 mps 679 mmHg 46%
    21:00 +26°C° 0 mm 3 mps 679 mmHg 49%
    22:00 +25°C° 0 mm 3 mps 679 mmHg 51%
    23:00 +23°C° 0 mm 4 mps 679 mmHg 53%

    Mañana, 1 Marzo, Domingo

    Tiempo Temperatura Precipitaciones Viento Presión Humedad
    00:00 +22°C° 0 mm 3 mps 679 mmHg 56%
    01:00 +21°C° 0 mm 3 mps 679 mmHg 59%
    02:00 +20°C° 0 mm 3 mps 679 mmHg 62%
    03:00 +20°C° 0 mm 3 mps 679 mmHg 66%
    04:00 +19°C° 0 mm 4 mps 679 mmHg 69%
    05:00 +18°C° 0 mm 4 mps 679 mmHg 72%
    06:00 +19°C° 0 mm 4 mps 679 mmHg 71%
    07:00 +19°C° 0 mm 4 mps 680 mmHg 69%
    08:00 +20°C° 0 mm 4 mps 680 mmHg 68%
    09:00 +21°C° 0 mm 4 mps 680 mmHg 61%
    10:00 +23°C° 0 mm 4 mps 680 mmHg 54%
    11:00 +26°C° 0 mm 4 mps 681 mmHg 47%
    12:00 +27°C° 0 mm 4 mps 680 mmHg 44%
    13:00 +29°C° 0 mm 4 mps 679 mmHg 40%
    14:00 +30°C° 0 mm 4 mps 679 mmHg 36%
    15:00 +30°C° 0 mm 3 mps 678 mmHg 35%
    16:00 +30°C° 0 mm 3 mps 677 mmHg 33%
    17:00 +31°C° 0 mm 3 mps 677 mmHg 32%
    18:00 +29°C° 0 mm 2 mps 677 mmHg 36%
    19:00 +27°C° 0 mm 2 mps 677 mmHg 40%
    20:00 +25°C° 0 mm 1 mps 677 mmHg 44%
    21:00 +24°C° 0 mm 3 mps 677 mmHg 52%
    22:00 +22°C° 0 mm 5 mps 678 mmHg 60%
    23:00 +21°C° 0 mm 7 mps 678 mmHg 68%

    Pasado mañana, 2 Marzo, Lunes

    Tiempo Temperatura Precipitaciones Viento Presión Humedad
    00:00 +21°C° 0.2 mm 5 mps 678 mmHg 70%
    01:00 +20°C° 0.2 mm 3 mps 678 mmHg 71%
    02:00 +20°C° 0.2 mm 2 mps 677 mmHg 73%
    03:00 +19°C° 0.2 mm 2 mps 677 mmHg 76%
    04:00 +19°C° 0.2 mm 2 mps 677 mmHg 79%
    05:00 +19°C° 0.2 mm 2 mps 677 mmHg 82%
    06:00 +20°C° 0.4 mm 1 mps 677 mmHg 83%
    07:00 +20°C° 0.4 mm 1 mps 677 mmHg 83%
    08:00 +20°C° 0.4 mm 1 mps 677 mmHg 84%
    09:00 +20°C° 1.6 mm 2 mps 678 mmHg 80%
    10:00 +20°C° 1.6 mm 2 mps 678 mmHg 76%
    11:00 +21°C° 1.6 mm 3 mps 678 mmHg 72%
    12:00 +25°C° 0 mm 3 mps 678 mmHg 61%
    13:00 +28°C° 0 mm 3 mps 677 mmHg 49%
    14:00 +30°C° 0 mm 2 mps 677 mmHg 38%
    15:00 +29°C° 0.7 mm 2 mps 677 mmHg 45%
    16:00 +27°C° 0.7 mm 3 mps 676 mmHg 52%
    17:00 +26°C° 0.7 mm 3 mps 675 mmHg 58%
    18:00 +24°C° 1.2 mm 2 mps 676 mmHg 67%
    19:00 +23°C° 1.2 mm 2 mps 676 mmHg 75%
    20:00 +21°C° 1.2 mm 1 mps 676 mmHg 84%
    21:00 +21°C° 0 mm 1 mps 677 mmHg 84%
    22:00 +20°C° 0 mm 1 mps 677 mmHg 84%
    23:00 +20°C° 0 mm 1 mps 677 mmHg 83%

    3 Marzo, Martes

    Tiempo Temperatura Precipitaciones Viento Presión Humedad
    00:00 +20°C° 0 mm 1 mps 677 mmHg 83%
    01:00 +18°C° 0 mm 0 mps 677 mmHg 83%
    02:00 +17°C° 0 mm 0 mps 676 mmHg 83%
    03:00 +17°C° 0 mm 0 mps 676 mmHg 84%
    04:00 +17°C° 0 mm 0 mps 676 mmHg 85%
    05:00 +17°C° 0 mm 0 mps 676 mmHg 85%
    06:00 +20°C° 0 mm 1 mps 677 mmHg 81%
    07:00 +21°C° 0 mm 1 mps 678 mmHg 76%
    08:00 +21°C° 0 mm 2 mps 678 mmHg 72%
    09:00 +24°C° 0 mm 2 mps 678 mmHg 63%
    10:00 +26°C° 0 mm 3 mps 679 mmHg 55%
    11:00 +28°C° 0 mm 3 mps 679 mmHg 46%
    12:00 +29°C° 0 mm 3 mps 679 mmHg 41%
    13:00 +31°C° 0 mm 3 mps 679 mmHg 35%
    14:00 +33°C° 0 mm 3 mps 678 mmHg 30%
    15:00 +33°C° 0 mm 3 mps 678 mmHg 31%
    16:00 +31°C° 0 mm 3 mps 678 mmHg 31%
    17:00 +31°C° 0 mm 3 mps 677 mmHg 32%
    18:00 +29°C° 0 mm 3 mps 678 mmHg 36%
    19:00 +28°C° 0 mm 2 mps 678 mmHg 40%
    20:00 +26°C° 0 mm 2 mps 678 mmHg 44%
    21:00 +25°C° 0 mm 2 mps 679 mmHg 47%
    22:00 +24°C° 0 mm 3 mps 679 mmHg 51%
    23:00 +22°C° 0 mm 3 mps 679 mmHg 54%

    4 Marzo, Miércoles

    Tiempo Temperatura Precipitaciones Viento Presión Humedad
    00:00 +22°C° 0 mm 3 mps 679 mmHg 58%
    01:00 +21°C° 0 mm 3 mps 679 mmHg 62%
    02:00 +20°C° 0 mm 3 mps 679 mmHg 65%
    03:00 +20°C° 0 mm 3 mps 679 mmHg 70%
    04:00 +19°C° 0 mm 3 mps 679 mmHg 75%
    05:00 +19°C° 0 mm 3 mps 680 mmHg 80%
    06:00 +19°C° 0 mm 3 mps 680 mmHg 76%
    07:00 +20°C° 0 mm 3 mps 681 mmHg 73%
    08:00 +21°C° 0 mm 4 mps 681 mmHg 69%
    09:00 +23°C° 0 mm 4 mps 681 mmHg 62%
    10:00 +26°C° 0 mm 4 mps 681 mmHg 54%
    11:00 +28°C° 0 mm 4 mps 682 mmHg 46%
    12:00 +29°C° 0 mm 4 mps 681 mmHg 42%
    13:00 +30°C° 0 mm 3 mps 681 mmHg 39%
    14:00 +31°C° 0 mm 3 mps 681 mmHg 35%
    15:00 +31°C° 0 mm 3 mps 680 mmHg 35%
    16:00 +30°C° 0 mm 3 mps 680 mmHg 35%
    17:00 +30°C° 0 mm 3 mps 679 mmHg 35%
    18:00 +29°C° 0 mm 3 mps 679 mmHg 40%
    19:00 +27°C° 0 mm 2 mps 679 mmHg 45%
    20:00 +25°C° 0 mm 2 mps 679 mmHg 50%
    21:00 +24°C° 0 mm 2 mps 679 mmHg 53%
    22:00 +24°C° 0 mm 2 mps 679 mmHg 56%
    23:00 +23°C° 0 mm 2 mps 680 mmHg 59%

    5 Marzo, Jueves

    Tiempo Temperatura Precipitaciones Viento Presión Humedad
    00:00 +21°C° 0 mm 2 mps 679 mmHg 61%
    01:00 +22°C° 0 mm 1 mps 679 mmHg 63%
    02:00 +21°C° 0 mm 1 mps 679 mmHg 65%
    03:00 +21°C° 0 mm 1 mps 679 mmHg 67%
    04:00 +20°C° 0 mm 1 mps 679 mmHg 69%
    05:00 +20°C° 0 mm 1 mps 679 mmHg 72%
    06:00 +20°C° 0 mm 2 mps 679 mmHg 67%
    07:00 +21°C° 0 mm 2 mps 680 mmHg 61%
    08:00 +22°C° 0 mm 3 mps 680 mmHg 56%
    09:00 +25°C° 0 mm 3 mps 680 mmHg 50%
    10:00 +26°C° 0 mm 3 mps 681 mmHg 44%
    11:00 +28°C° 0 mm 3 mps 681 mmHg 37%
    12:00 +30°C° 0 mm 3 mps 680 mmHg 34%
    13:00 +31°C° 0 mm 3 mps 680 mmHg 30%
    14:00 +34°C° 0 mm 3 mps 679 mmHg 27%
    15:00 +34°C° 0 mm 3 mps 679 mmHg 25%
    16:00 +34°C° 0 mm 3 mps 678 mmHg 24%
    17:00 +34°C° 0 mm 3 mps 678 mmHg 22%
    18:00 +31°C° 0 mm 2 mps 678 mmHg 26%
    19:00 +28°C° 0 mm 2 mps 678 mmHg 29%
    20:00 +26°C° 0 mm 1 mps 678 mmHg 33%
    21:00 +25°C° 0 mm 1 mps 678 mmHg 39%
    22:00 +24°C° 0 mm 1 mps 678 mmHg 46%
    23:00 +21°C° 0 mm 0 mps 678 mmHg 52%
    Mostrar más